EA4TN Weather Reports


Display with metric or nautical units.
time (UTC)temp
F
wind
direction
speed
MPH
gust
MPH
rain 1hr
in
rain 24hr
in
rain mn
in
humidity
%
barometer
mb
20260502225016 60 239 2.0 4.0 0.03 0.06 0.06 84 1015.5
20260502224016 60 276 1.0 3.0 0.00 0.03 0.03 82 1015.3
20260502223016 60 276 0.0 1.0 0.00 0.03 0.03 82 1015.0
20260502222036 60 276 1.0 2.0 0.00 0.03 0.03 83 1015.2
20260502221016 60 276 1.0 2.0 0.00 0.03 0.03 82 1015.4
20260502220016 60 276 1.0 2.0 0.00 0.03 0.03 80 1015.3
20260502215036 60 274 1.0 4.0 0.00 0.03 0.03 78 1015.5
20260502214036 60 242 2.0 2.0 0.00 0.03 0.03 76 1015.2
20260502213017 60 241 2.0 4.0 0.00 0.03 0.03 76 1015.1
20260502212016 61 235 2.0 4.0 0.00 0.03 0.03 76 1015.2
20260502211016 61 249 1.0 3.0 0.00 0.03 0.03 75 1015.1
20260502210016 61 244 2.0 4.0 0.00 0.03 0.03 74 1014.9
20260502205016 61 245 1.0 4.0 0.00 0.03 0.03 74 1014.9
20260502204016 61 243 2.0 4.0 0.00 0.03 0.03 73 1014.9
20260502203016 61 235 2.0 3.0 0.00 0.03 0.03 72 1014.7
20260502202037 61 245 1.0 3.0 0.00 0.03 0.03 72 1014.6
20260502201016 62 248 2.0 4.0 0.00 0.03 0.03 71 1014.6
20260502200016 62 256 1.0 3.0 0.00 0.03 0.03 70 1014.5
20260502195016 62 261 1.0 3.0 0.00 0.03 0.03 68 1014.4
20260502194017 62 252 2.0 4.0 0.00 0.03 0.03 67 1014.3
20260502193036 63 251 2.0 5.0 0.00 0.03 0.03 66 1014.2
20260502192017 63 260 2.0 5.0 0.00 0.03 0.03 64 1014.2
20260502191036 64 252 3.0 6.0 0.00 0.03 0.03 63 1014.2
20260502190037 64 274 2.0 5.0 0.00 0.03 0.03 62 1014.1
20260502185016 65 261 3.0 6.0 0.00 0.03 0.03 61 1014.3
20260502184037 65 252 3.0 8.0 0.00 0.03 0.03 61 1014.2
20260502183017 65 264 4.0 11.0 0.00 0.03 0.03 63 1014.1
20260502182036 65 264 3.0 8.0 0.00 0.03 0.03 64 1014.0
20260502181017 64 269 5.0 11.0 0.00 0.03 0.03 65 1014.0
20260502164016 67 284 5.0 15.0 0.00 0.03 0.03 60 1014.4
20260502163016 67 278 7.0 13.0 0.00 0.03 0.03 61 1014.3
20260502162016 67 285 6.0 15.0 0.00 0.03 0.03 62 1014.4
20260502161036 66 299 8.0 16.0 0.00 0.03 0.03 64 1014.6
20260502152017 72 252 5.0 14.0 0.00 0.03 0.03 55 1014.9
20260502151017 71 257 6.0 11.0 0.00 0.03 0.03 57 1014.9
20260502123037 68 240 3.0 9.0 0.00 0.03 0.03 64 1016.7
20260502122017 68 229 4.0 8.0 0.00 0.03 0.03 65 1017.0
20260502121017 68 154 3.0 10.0 0.00 0.03 0.03 65 1017.0
20260502115017 66 238 5.0 9.0 0.00 0.03 0.03 69 1017.1
20260502114017 65 130 3.0 8.0 0.00 0.03 0.03 71 1017.4
20260502113017 65 243 2.0 8.0 0.00 0.03 0.03 72 1017.6
20260502112037 65 249 4.0 10.0 0.00 0.03 0.03 72 1017.8
20260502111017 65 218 3.0 7.0 0.00 0.03 0.03 74 1017.8
20260502110017 64 233 3.0 8.0 0.00 0.03 0.03 75 1017.9
20260502105017 64 192 2.0 9.0 0.00 0.03 0.03 76 1018.1
20260502104017 64 238 4.0 7.0 0.00 0.03 0.03 76 1018.3
20260502103017 64 88 2.0 4.0 0.00 0.03 0.03 79 1018.4
20260502102017 64 140 2.0 6.0 0.00 0.03 0.03 80 1018.4
20260502101037 63 263 1.0 5.0 0.00 0.03 0.03 82 1018.5
20260502091017 61 117 2.0 5.0 0.00 0.03 0.03 87 1018.6
20260502071017 59 134 2.0 6.0 0.01 0.01 0.01 85 1018.8
20260502070017 59 130 2.0 6.0 0.01 0.01 0.01 85 1019.0
20260502065037 60 120 3.0 6.0 0.01 0.01 0.01 84 1019.2
20260502064017 59 225 1.0 4.0 0.00 0.00 0.00 84 1019.2
20260502063017 60 237 2.0 4.0 0.00 0.00 0.00 83 1019.4
20260502062035 60 265 2.0 8.0 0.00 0.00 0.00 82 1019.6
20260502061037 60 245 4.0 11.0 0.00 0.00 0.00 81 1019.2
20260502060015 60 323 0.0 5.0 0.00 0.00 0.00 81 1018.8
20260502055017 60 92 1.0 6.0 0.00 0.00 0.00 81 1018.7
20260502054017 60 124 4.0 6.0 0.00 0.00 0.00 81 1018.5
20260502053017 60 117 1.0 9.0 0.00 0.00 0.00 81 1018.9
20260502052015 60 102 2.0 8.0 0.00 0.00 0.00 80 1019.1
20260502051017 60 125 4.0 9.0 0.00 0.00 0.00 80 1019.1
20260502050017 60 117 2.0 7.0 0.00 0.00 0.00 80 1019.3
20260502045017 60 92 1.0 6.0 0.00 0.00 0.00 80 1019.3
20260502044017 60 124 3.0 6.0 0.00 0.00 0.00 80 1019.1
20260502043017 60 116 2.0 5.0 0.00 0.00 0.00 80 1019.1
20260502042017 60 185 1.0 5.0 0.00 0.00 0.00 80 1019.1
20260502041015 60 125 4.0 7.0 0.00 0.00 0.00 80 1019.0
20260502040017 60 119 3.0 6.0 0.00 0.00 0.00 80 1019.2
20260502035035 60 253 2.0 4.0 0.00 0.00 0.00 80 1019.3
20260502034035 60 105 2.0 4.0 0.00 0.00 0.00 80 1019.2
20260502033015 60 135 1.0 5.0 0.00 0.00 0.00 79 1019.2
20260502032015 60 125 1.0 8.0 0.00 0.00 0.00 79 1019.1
20260502031015 60 141 2.0 6.0 0.00 0.00 0.00 79 1019.1
20260502030015 60 115 1.0 6.0 0.00 0.00 0.00 79 1019.2
20260502025015 60 110 2.0 8.0 0.00 0.00 0.00 79 1019.3
20260502024035 60 258 2.0 6.0 0.00 0.00 0.00 80 1019.4
20260502023015 60 272 1.0 4.0 0.00 0.00 0.00 80 1019.2
20260502022015 60 100 1.0 7.0 0.00 0.00 0.00 79 1019.2
20260502021015 60 124 3.0 7.0 0.00 0.00 0.00 79 1019.2
20260502020015 60 90 1.0 4.0 0.00 0.00 0.00 79 1019.3
20260502015016 60 227 2.0 6.0 0.00 0.00 0.00 79 1019.5
20260502014015 60 140 2.0 6.0 0.00 0.00 0.00 78 1019.4
20260502013035 60 242 2.0 9.0 0.00 0.00 0.00 78 1019.3
20260502012035 61 131 4.0 10.0 0.00 0.00 0.00 77 1019.4
20260502011015 61 137 3.0 11.0 0.00 0.00 0.00 77 1019.7
20260502010035 61 165 2.0 4.0 0.00 0.00 0.00 77 1019.9
20260502005016 61 231 2.0 7.0 0.00 0.00 0.00 77 1020.0
20260502004015 61 227 2.0 8.0 0.00 0.00 0.00 77 1019.9
20260502003015 61 49 1.0 9.0 0.00 0.00 0.00 76 1019.7
20260502002015 62 157 2.0 14.0 0.00 0.00 0.00 76 1019.8
20260502001015 62 122 7.0 12.0 0.00 0.00 0.00 75 1019.8
20260502000015 62 114 5.0 10.0 0.00 0.00 0.00 75 1019.9
20260501235017 63 115 3.0 9.0 0.00 0.00 0.00 74 1019.8
20260501234017 63 269 2.0 5.0 0.00 0.00 0.00 74 1020.1
20260501233016 63 157 3.0 8.0 0.00 0.00 0.00 73 1019.9
20260501232017 63 263 2.0 12.0 0.00 0.00 0.00 73 1020.0
20260501231017 64 122 3.0 10.0 0.00 0.00 0.00 72 1020.2
20260501230017 64 110 4.0 13.0 0.00 0.00 0.00 72 1019.9